This demonstration page uses our WeatherBlox Daily Observations layout. Learn more.

Left ArrowRight Arrow

34.74481, -87.66753

Hourly Observations for October 7, 2021

Temp ( °F °C ) Dew Point ( °F °C ) Humidity (%) Winds ( mph kmh ) Pressure ( in mb ) Visibility ( mi km ) Precip ( " mm )
12:53 am 00:53 Mostly Cloudy 68 20 64 17.8 87 87 NE 3 6 30.04 1017 10 16 0.00 0.00
1:53 am 01:53 Clear 68 20 65 18.3 90 90 E 3 6 30.04 1017 10 16 0.00 0.00
2:53 am 02:53 Clear 68 20 64 17.8 87 87 Calm 30.04 1017 10 16 0.00 0.00
3:34 am 03:34 Clear with Mist and Fog 66 18.9 63 17.2 90 90 Calm 30.05 1018 2 2 0.00 0.00
3:53 am 03:53 Clear with Mist and Fog 66 18.9 63 17.2 90 90 E 3 6 30.04 1017 1 2 0.00 0.00
4:05 am 04:05 Clear with Mist and Fog 65 18.3 62 16.7 90 90 Calm 30.05 1018 1 1 0.00 0.00
4:16 am 04:16 Mostly Cloudy with Mist and Fog 66 18.9 62 16.7 87 87 Calm 30.06 1018 1 2 0.00 0.00
4:22 am 04:22 Mostly Cloudy with Mist and Fog 66 18.9 62 16.7 87 87 Calm 30.06 1018 3 5 0.00 0.00
4:53 am 04:53 Cloudy 67 19.4 64 17.8 91 91 Calm 30.06 1018 10 16 0.00 0.00
5:01 am 05:01 Cloudy 67 19.4 64 17.8 91 91 Calm 30.07 1018 10 16 0.00 0.00
5:53 am 05:53 Cloudy 68 20 65 18.3 90 90 Calm 30.07 1018 10 16 0.00 0.00
6:53 am 06:53 Cloudy 69 20.6 65 18.3 87 87 Calm 30.08 1019 10 16 0.00 0.00
7:53 am 07:53 Cloudy 69 20.6 65 18.3 87 87 Calm 30.08 1019 10 16 0.00 0.00
8:39 am 08:39 Cloudy 71 21.7 65 18.3 81 81 W 3 6 30.10 1019 10 16 0.00 0.00
8:53 am 08:53 Cloudy 71 21.7 66 18.9 84 84 WNW 3 6 30.11 1020 10 16 0.00 0.00
9:53 am 09:53 Cloudy 71 21.7 65 18.3 81 81 Calm 30.12 1020 10 16 0.00 0.00
10:20 am 10:20 Cloudy 73 22.8 65 18.3 76 76 NW 5 7 30.13 1020 10 16 0.00 0.00
10:53 am 10:53 Cloudy 74 23.3 65 18.3 74 74 WNW 5 7 30.13 1020 10 16 0.00 0.00
11:40 am 11:40 Cloudy 74 23.3 65 18.3 74 74 Calm 30.13 1020 10 16 0.00 0.00
11:53 am 11:53 Cloudy 75 23.9 65 18.3 71 71 N 3 6 30.13 1020 10 16 0.00 0.00
12:53 pm 12:53 Sunny 76 24.4 64 17.8 67 67 Calm 30.11 1020 10 16 0.00 0.00
1:53 pm 13:53 Sunny 80 26.7 63 17.2 56 56 Calm 30.08 1019 10 16 0.00 0.00
2:53 pm 14:53 Mostly Cloudy 82 27.8 63 17.2 53 53 Calm 30.06 1018 10 16 0.00 0.00
3:53 pm 15:53 Sunny 83 28.3 63 17.2 51 51 Calm 30.05 1018 10 16 0.00 0.00
4:53 pm 16:53 Partly Cloudy 82 27.8 61 16.1 49 49 Calm 30.04 1017 10 16 0.00 0.00
5:53 pm 17:53 Sunny 79 26.1 63 17.2 58 58 W 6 9 30.03 1017 10 16 0.00 0.00
6:53 pm 18:53 Clear 72 22.2 64 17.8 76 76 Calm 30.03 1017 10 16 0.00 0.00
7:53 pm 19:53 Clear 68 20 63 17.2 84 84 SSE 3 6 30.04 1017 10 16 0.00 0.00
8:53 pm 20:53 Clear 68 20 63 17.2 84 84 Calm 30.06 1018 10 16 0.00 0.00
9:53 pm 21:53 Clear 67 19.4 63 17.2 87 87 Calm 30.07 1018 9 14 0.00 0.00
10:53 pm 22:53 Clear with Mist and Fog 66 18.9 62 16.7 87 87 Calm 30.06 1018 6 10 0.00 0.00
11:02 pm 23:02 Clear with Mist and Fog 66 18.9 62 16.7 87 87 Calm 30.07 1018 2 3 0.00 0.00
11:22 pm 23:22 Clear with Mist and Fog 65 18.3 61 16.1 87 87 Calm 30.07 1018 3 5 0.00 0.00
11:25 pm 23:25 Clear with Mist and Fog 65 18.3 62 16.7 90 90 Calm 30.07 1018 2 2 0.00 0.00
11:35 pm 23:35 Clear with Mist and Fog 65 18.3 62 16.7 90 90 Calm 30.07 1018 1 1 0.00 0.00
11:44 pm 23:44 Clear with Mist and Fog 66 18.9 62 16.7 87 87 Calm 30.07 1018 3 4 0.00 0.00
11:51 pm 23:51 Clear with Mist and Fog 66 19 63 17 88 88 Calm 30.07 1018 6 10 0.00 0.00
11:53 pm 23:53 Clear with Mist and Fog 66 18.9 62 16.7 87 87 Calm 30.06 1018 6 10 0.00 0.00

Powered by AerisWeather